TimeEDT,TemperatureF,Dew PointF,Humidity,Sea Level PressureIn,VisibilityMPH,Wind Direction,Wind SpeedMPH,Gust SpeedMPH,PrecipitationIn,Events,Conditions,WindDirDegrees,DateUTC
12:17 AM,52.5,50.9,94,30.18,0.8,Calm,Calm,-,N/A,,Mist,0,2013-09-28 04:17:00
12:37 AM,51.6,49.8,94,30.19,10.0,Calm,Calm,-,N/A,,Clear,0,2013-09-28 04:37:00
12:57 AM,51.1,49.1,93,30.19,10.0,Calm,Calm,-,N/A,,Clear,0,2013-09-28 04:57:00
1:17 AM,51.8,50.2,94,30.19,10.0,Calm,Calm,-,N/A,,Clear,0,2013-09-28 05:17:00
1:37 AM,53.1,51.1,93,30.19,10.0,Calm,Calm,-,N/A,,Clear,0,2013-09-28 05:37:00
1:57 AM,52.5,50.4,92,30.19,10.0,Calm,Calm,-,N/A,,Clear,0,2013-09-28 05:57:00
2:17 AM,51.1,48.7,92,30.18,10.0,Calm,Calm,-,N/A,,Clear,0,2013-09-28 06:17:00
2:37 AM,49.6,47.5,92,30.18,10.0,Calm,Calm,-,N/A,,Clear,0,2013-09-28 06:37:00
2:57 AM,50.4,48.7,94,30.18,4.0,Calm,Calm,-,N/A,,Clear,0,2013-09-28 06:57:00
3:17 AM,49.5,47.8,94,30.18,0.5,Calm,Calm,-,N/A,Fog,Fog,0,2013-09-28 07:17:00
3:37 AM,47.5,45.7,93,30.18,0.2,Calm,Calm,-,N/A,Fog,Fog,0,2013-09-28 07:37:00
3:57 AM,48.2,46.8,95,30.18,0.2,Calm,Calm,-,N/A,Fog,Fog,0,2013-09-28 07:57:00
4:17 AM,46.9,45.7,95,30.18,0.2,Calm,Calm,-,N/A,Fog,Fog,0,2013-09-28 08:17:00
4:37 AM,47.7,46.2,95,30.18,0.2,Calm,Calm,-,N/A,Fog,Fog,0,2013-09-28 08:37:00
4:57 AM,46.9,45.7,95,30.18,0.2,Calm,Calm,-,N/A,Fog,Fog,0,2013-09-28 08:57:00
5:17 AM,45.5,44.2,95,30.18,0.2,Calm,Calm,-,N/A,Fog,Fog,0,2013-09-28 09:17:00
5:37 AM,45.5,44.4,96,30.18,0.2,Calm,Calm,-,N/A,Fog,Fog,0,2013-09-28 09:37:00
5:57 AM,45.7,44.4,95,30.18,0.2,Calm,Calm,-,N/A,Fog,Fog,0,2013-09-28 09:57:00
6:17 AM,45.7,44.6,96,30.18,0.2,Calm,Calm,-,N/A,Fog,Fog,0,2013-09-28 10:17:00
6:37 AM,45.5,44.1,95,30.18,0.5,Calm,Calm,-,N/A,Fog,Fog,0,2013-09-28 10:37:00
6:57 AM,47.5,46.2,95,30.18,5.0,Calm,Calm,-,N/A,,Overcast,0,2013-09-28 10:57:00
7:17 AM,50.5,49.3,95,30.18,5.0,Calm,Calm,-,N/A,,Overcast,0,2013-09-28 11:17:00
7:37 AM,51.3,50.0,95,30.18,3.0,Calm,Calm,-,N/A,,Overcast,0,2013-09-28 11:37:00
7:57 AM,53.4,52.0,95,30.18,0.5,ESE,4.6,-,N/A,Fog,Fog,110,2013-09-28 11:57:00
8:17 AM,53.6,52.3,95,30.18,0.2,ESE,4.6,-,N/A,Fog,Fog,110,2013-09-28 12:17:00
8:37 AM,54.0,52.7,95,30.18,0.2,SE,3.5,-,N/A,Fog,Fog,130,2013-09-28 12:37:00
8:57 AM,54.7,53.6,96,30.18,0.2,SE,5.8,-,N/A,Fog,Fog,140,2013-09-28 12:57:00
9:17 AM,55.4,54.0,95,30.18,0.2,SE,4.6,-,N/A,Fog,Fog,140,2013-09-28 13:17:00
9:37 AM,56.3,55.4,97,30.19,0.8,SSE,6.9,-,N/A,,Overcast,150,2013-09-28 13:37:00
9:57 AM,57.0,55.6,95,30.18,4.0,SE,5.8,-,N/A,,Overcast,140,2013-09-28 13:57:00
10:17 AM,57.4,56.3,96,30.18,4.0,ESE,5.8,-,N/A,,Overcast,120,2013-09-28 14:17:00
10:37 AM,58.3,56.7,94,30.18,7.0,ESE,6.9,-,N/A,,Overcast,120,2013-09-28 14:37:00
10:57 AM,60.1,57.4,91,30.17,7.0,ESE,8.1,-,N/A,,Overcast,120,2013-09-28 14:57:00
11:18 AM,61.9,57.9,87,30.16,10.0,SE,9.2,-,N/A,,Scattered Clouds,130,2013-09-28 15:18:00
11:37 AM,64.2,58.5,82,30.15,10.0,SE,6.9,-,N/A,,Clear,130,2013-09-28 15:37:00
11:57 AM,67.3,58.5,73,30.15,10.0,ESE,9.2,-,N/A,,Clear,120,2013-09-28 15:57:00
12:18 PM,69.6,57.9,66,30.14,10.0,SE,10.4,17.3,N/A,,Clear,130,2013-09-28 16:18:00
12:37 PM,71.4,56.8,60,30.13,10.0,SSE,8.1,-,N/A,,Clear,160,2013-09-28 16:37:00
12:57 PM,73.0,55.2,53,30.12,10.0,SSE,10.4,17.3,N/A,,Clear,160,2013-09-28 16:57:00
1:18 PM,74.8,54.7,49,30.11,10.0,SSE,9.2,-,N/A,,Clear,150,2013-09-28 17:18:00
1:37 PM,76.3,52.7,44,30.09,10.0,SSE,8.1,-,N/A,,Clear,150,2013-09-28 17:37:00
1:57 PM,76.3,51.3,41,30.08,10.0,South,10.4,-,N/A,,Clear,180,2013-09-28 17:57:00
2:18 PM,77.2,51.4,41,30.07,10.0,SSE,9.2,16.1,N/A,,Clear,150,2013-09-28 18:18:00
2:37 PM,78.1,50.5,38,30.06,10.0,SSE,6.9,-,N/A,,Clear,160,2013-09-28 18:37:00
2:57 PM,78.1,49.3,36,30.05,10.0,SSE,12.7,17.3,N/A,,Clear,160,2013-09-28 18:57:00
3:17 PM,79.0,49.5,35,30.04,10.0,SE,10.4,-,N/A,,Clear,130,2013-09-28 19:17:00
3:37 PM,79.0,49.1,35,30.03,10.0,SSE,11.5,17.3,N/A,,Clear,160,2013-09-28 19:37:00
3:57 PM,79.7,48.2,33,30.02,10.0,SSE,10.4,18.4,N/A,,Clear,150,2013-09-28 19:57:00
4:17 PM,79.5,47.7,33,30.01,10.0,South,10.4,17.3,N/A,,Clear,180,2013-09-28 20:17:00
4:37 PM,78.8,46.2,32,30.01,10.0,South,11.5,17.3,N/A,,Clear,170,2013-09-28 20:37:00
4:57 PM,78.6,46.2,32,30.01,10.0,SSE,15.0,18.4,N/A,,Clear,160,2013-09-28 20:57:00
5:17 PM,77.2,47.1,35,30.01,10.0,South,13.8,18.4,N/A,,Clear,170,2013-09-28 21:17:00
5:37 PM,77.0,48.0,36,30.01,10.0,SSE,9.2,-,N/A,,Clear,160,2013-09-28 21:37:00
5:57 PM,75.7,47.3,36,30.01,10.0,South,8.1,-,N/A,,Clear,170,2013-09-28 21:57:00
6:17 PM,74.8,46.8,37,30.00,10.0,South,8.1,-,N/A,,Clear,170,2013-09-28 22:17:00
6:37 PM,75.6,47.5,37,30.00,10.0,SSE,8.1,-,N/A,,Clear,160,2013-09-28 22:37:00
6:57 PM,74.7,47.8,39,30.00,10.0,SSE,6.9,-,N/A,,Clear,150,2013-09-28 22:57:00
7:17 PM,73.6,48.6,41,30.00,10.0,SSE,6.9,-,N/A,,Clear,150,2013-09-28 23:17:00
7:37 PM,72.0,49.1,44,29.99,10.0,SE,4.6,-,N/A,,Clear,140,2013-09-28 23:37:00
7:57 PM,70.0,50.0,49,29.99,10.0,SSE,3.5,-,N/A,,Clear,160,2013-09-28 23:57:00
8:17 PM,68.9,50.2,51,29.99,10.0,SE,4.6,-,N/A,,Clear,140,2013-09-29 00:17:00
8:37 PM,67.5,50.5,55,29.99,10.0,SE,3.5,-,N/A,,Clear,140,2013-09-29 00:37:00
8:57 PM,67.1,50.4,55,29.98,10.0,SE,4.6,-,N/A,,Clear,130,2013-09-29 00:57:00
9:17 PM,66.2,50.4,57,29.98,10.0,SE,3.5,-,N/A,,Clear,130,2013-09-29 01:17:00
9:37 PM,64.8,50.9,61,29.98,10.0,SE,3.5,-,N/A,,Clear,130,2013-09-29 01:37:00
9:57 PM,64.6,50.9,61,29.98,10.0,SE,5.8,-,N/A,,Clear,130,2013-09-29 01:57:00
10:17 PM,64.6,51.4,62,29.98,10.0,ESE,4.6,-,N/A,,Clear,120,2013-09-29 02:17:00
10:37 PM,64.2,51.8,64,29.97,10.0,SE,6.9,-,N/A,,Clear,140,2013-09-29 02:37:00
10:57 PM,64.4,52.0,64,29.97,10.0,SE,8.1,-,N/A,,Clear,140,2013-09-29 02:57:00
11:17 PM,64.2,52.3,65,29.96,10.0,SE,5.8,-,N/A,,Clear,140,2013-09-29 03:17:00
11:37 PM,63.9,52.7,67,29.96,10.0,SE,6.9,-,N/A,,Clear,140,2013-09-29 03:37:00
11:57 PM,63.5,52.7,68,29.96,10.0,SE,6.9,-,N/A,,Clear,140,2013-09-29 03:57:00